Location: Birdton
(46.1166°N, 66.8166°W)
Time: 19:28:53
(UTC-03:00)

Daily predictions for brighter satellites

Satellite Brightness Start Highest point End
(mag) Time Altitude Azimuth Time Altitude Azimuth Time Altitude Azimuth
Cosmos 292 Rocket 3.8 21:29:04 10° SSW 21:33:54 83° ESE 21:38:44 10° NNE
COSMOS 2406 3.7 21:29:36 10° S 21:34:52 39° ESE 21:40:07 10° NE
Cosmos 1455 Rocket 3.3 21:32:09 10° NNW 21:36:32 73° W 21:40:51 10° S
ARGOS 4.1 21:33:02 10° SE 21:37:47 33° ENE 21:42:35 10° N
Cosmos 1939 Rocket 2.9 21:34:26 10° SSE 21:38:18 83° WSW 21:42:13 10° NNW
Cosmos 1680 Rocket 4.0 21:39:04 10° S 21:43:54 40° ESE 21:48:46 10° NE
SL-27 R/B 3.8 21:42:29 10° SSE 21:45:22 22° E 21:48:15 10° NE
SPOT 5 3.6 21:44:13 10° SE 21:48:02 31° ENE 21:51:53 10° N
H-2A R/B 4.3 21:49:18 10° E 21:51:26 13° ENE 21:53:34 10° NNE
Cosmos 1743 2.8 21:48:28 10° N 21:52:23 87° W 21:56:17 10° S
Cosmos 1346 3.0 21:53:30 10° S 21:56:12 53° E 21:58:57 10° NNE
Envisat 3.9 21:52:27 10° S 21:57:21 49° W 22:02:17 10° NNW
Cosmos 405 3.6 21:54:24 10° N 21:57:49 40° ENE 22:00:54 12° SE
Terra 3.7 21:58:54 10° ESE 22:02:01 18° ENE 22:05:10 10° NNE
ASTEX 1 3.4 21:58:06 10° SSE 22:03:00 75° E 22:07:54 10° N
MetOp-B 4.3 21:58:56 10° SSE 22:04:13 65° ENE 22:09:33 10° N
Aureole 3 Rocket 3.6 21:57:43 10° S 22:04:17 78° E 22:08:56 10° NNE
SPOT 1/Viking Rocket 4.2 22:03:38 12° SE 22:08:08 40° ENE 22:12:56 10° N
CRYOSAT 2 4.3 22:04:31 10° SSE 22:09:21 76° E 22:14:13 10° N
Cosmos 1437 Rocket 3.5 22:07:39 10° N 22:11:13 36° ENE 22:13:57 15° SE
Meteor 2-9 Rocket 4.2 22:06:47 10° N 22:12:15 80° E 22:17:50 10° SSE
Tiangong 2 2.6 22:10:15 10° SSW 22:12:31 18° SSE 22:13:19 17° SE
Aureole 1 Rocket 2.3 22:10:34 10° S 22:13:50 51° ESE 22:16:46 10° NNE
Okean 1-7 Rocket 3.8 22:09:35 10° S 22:13:55 55° E 22:18:20 10° NNE
NOSS 2-2 (E) 3.7 22:11:08 10° SW 22:15:13 80° NW 22:20:09 10° NE
Cosmos 1238 Rocket 4.2 22:09:35 10° S 22:16:15 70° E 22:22:47 10° NNE
DNEPR-1 R/B 3.7 22:12:18 10° NW 22:16:31 69° WSW 22:20:18 14° SSE
Okean 2 4.0 22:13:58 13° SSE 22:17:19 39° E 22:21:09 10° NNE
Meteor 2-4 Rocket 3.7 22:16:00 10° S 22:21:37 82° E 22:27:28 10° NNE
Cosmos 1666 3.2 22:19:18 10° NNW 22:23:00 55° W 22:26:40 10° S
Cosmos 1371 Rocket 4.1 22:18:13 10° NNW 22:23:35 68° ENE 22:27:44 16° SSE
TELKOM 3 4.1 22:21:56 10° WNW 22:24:11 45° NNE 22:26:53 12° E
ISS -2.8 22:22:07 10° SSW 22:24:54 26° SE 22:27:42 10° E
Cosmos 1892 Rocket 4.4 22:24:29 17° SE 22:27:19 33° E 22:31:18 10° NNE
Cosmos 2228 4.2 22:23:50 10° NNE 22:27:37 29° ENE 22:30:01 17° ESE
Cosmos 923 Rocket 4.5 22:24:07 10° SSW 22:29:25 66° WNW 22:34:43 10° NNE
Cosmos 1833 Rocket 4.2 22:29:45 15° ESE 22:31:21 17° E 22:34:47 10° ENE
Cosmos 921 Rocket 3.8 22:29:03 10° N 22:33:20 41° ENE 22:36:04 19° SE
Cosmos 2181 Rocket 4.4 22:28:20 14° SSE 22:33:30 45° E 22:39:27 10° NNE
CZ-3A R/B 3.0 22:32:41 10° SSW 22:33:09 12° S 22:33:09 12° S
Cosmos 1606 Rocket 3.5 22:34:28 10° N 22:38:47 71° E 22:41:41 20° SSE
Lacrosse 5 rocket 4.1 22:36:11 10° NW 22:39:42 21° N 22:43:16 10° NE
USA 245 2.3 22:38:45 24° S 22:40:09 71° WSW 22:42:34 10° NNW
Intercosmos 24 4.0 22:36:09 10° NNW 22:40:23 71° W 22:43:05 17° S
YAOGAN 11 4.4 22:40:58 14° S 22:44:31 61° WSW 22:48:49 10° NNW
USA 267 4.3 22:40:38 10° ENE 22:45:21 21° ESE 22:46:46 19° SE
SL-24 DEB 4.2 22:43:07 19° SSE 22:46:26 76° E 22:51:04 10° N
ERS-1 Rocket 4.1 22:42:12 10° SSW 22:46:53 39° W 22:51:35 10° NNW
Cosmos 1726 Rocket 3.5 22:45:26 10° N 22:49:47 77° E 22:52:22 23° SSE
Meteor 1-23 Rocket 4.4 22:45:17 10° SSW 22:50:51 76° WNW 22:56:30 10° N
OE (NEXTSAT) 4.3 22:47:23 10° W 22:50:57 68° SSW 22:52:38 28° ESE
MOS 1-B Rocket 4.5 22:46:03 11° S 22:51:25 57° W 22:57:43 10° NNW
Meteor 1-4 Rocket 3.8 22:51:42 10° N 22:54:54 28° ENE 22:56:01 24° ESE
Cosmos 1515 3.6 22:53:03 25° S 22:55:09 66° E 22:58:57 10° NNE
H-2A R/B 1.9 22:52:51 21° SSE 22:56:12 89° W 23:01:16 10° NNW
Cosmos 2058 Rocket 3.1 22:51:49 10° N 22:56:13 67° E 22:58:33 27° SSE
Cosmos 1980 Rocket 3.7 22:51:55 10° N 22:56:37 26° NE 23:00:40 12° E
CARTOSAT-1 3.8 22:59:31 27° SE 23:01:36 55° ENE 23:05:51 10° N
CENTAUR R/B 4.2 22:55:23 10° NW 23:02:21 34° WSW 23:09:18 11° S
Cosmos 1025 Rocket 3.8 22:59:07 10° SSW 23:03:16 50° WNW 23:07:26 10° N
DMSP B5D2-2 4.2 22:58:12 10° NNE 23:03:27 57° E 23:06:40 23° S
PSLV R/B 4.0 23:04:14 29° E 23:04:29 30° ENE 23:07:00 10° N
Cosmos 1624 Rocket 4.3 23:02:28 10° NNW 23:07:42 64° WSW 23:10:57 23° S
SeaSat 1 4.3 23:06:53 10° E 23:10:32 21° NE 23:14:10 10° N
ARGOS 4.2 23:13:33 13° SSW 23:17:56 39° W 23:23:01 10° NNW
SL-8 Rocket 4.0 23:13:00 10° N 23:19:17 85° E 23:23:03 26° S
USA 234 4.4 23:16:17 10° E 23:22:19 41° NNE 23:28:20 10° NW
Cosmos 2366 rocket 4.0 23:17:07 10° N 23:23:18 69° E 23:26:33 29° SSE
Landsat 7 4.1 23:21:40 27° S 23:24:14 64° WSW 23:28:58 10° NNW
Cosmos 1812 Rocket 4.3 23:20:32 10° N 23:24:48 41° ENE 23:26:12 32° ESE
Cosmos 2278 3.8 23:20:09 10° NNW 23:25:52 75° WSW 23:28:45 30° SSE
SPOT 5 4.3 23:23:04 13° SSW 23:26:09 26° W 23:29:50 10° NW
Cosmos 2056 Rocket 4.2 23:21:25 10° NNW 23:26:23 46° WSW 23:29:10 24° SSW
H-2A R/B 2.1 23:24:49 34° S 23:26:47 84° WSW 23:31:21 10° NNW
CZ-4C R/B 4.0 23:26:09 32° E 23:26:47 34° ENE 23:30:03 10° N
Meteor 2-21 4.4 23:21:52 10° N 23:27:57 75° E 23:31:02 30° SSE
Cosmos 2082 Rocket 2.3 23:28:03 29° S 23:30:40 53° ESE 23:36:11 10° NE
Cosmos 1544 4.2 23:33:07 10° NNE 23:36:20 29° ENE 23:36:42 28° E
CZ-4B R/B 3.7 23:32:26 10° NNE 23:37:23 55° E 23:39:09 37° SSE
Cosmos 1626 Rocket 3.5 23:37:17 44° SSE 23:38:30 67° E 23:42:48 10° NNE
Terra 2.0 23:37:11 32° S 23:39:17 64° WSW 23:44:02 10° NNW
CZ-2C R/B 4.2 23:39:44 10° NE 23:43:47 20° E 23:44:47 19° ESE
Cosmos 2369 4.1 23:38:49 10° NW 23:44:25 54° WSW 23:46:58 31° S
Timation 2 Rocket 4.4 23:42:50 33° SSE 23:44:56 44° ESE 23:50:45 10° NE
ALOS 2 4.4 23:43:48 17° E 23:45:19 20° ENE 23:48:32 10° NNE
Spot 4 3.8 23:45:18 41° SSE 23:46:58 83° ENE 23:51:48 10° NNW
Cosmos 1420 Rocket 4.0 23:42:33 10° NNW 23:47:52 77° ENE 23:49:47 40° SSE
COSMOS 2487 2.8 23:47:21 41° SW 23:48:25 65° WNW 23:51:59 10° NNE
SL-08 R/B 4.5 23:44:03 10° N 23:50:11 77° W 23:53:12 32° S
Cosmos 1842 3.7 23:53:44 44° E 23:53:52 45° E 23:57:38 10° NNE
Cosmos 1048 Rocket 4.3 23:53:18 39° SE 23:54:16 44° ESE 23:59:09 10° NNE
Cosmos 1697 Rocket 2.6 23:48:38 10° NNW 23:54:17 86° WSW 23:56:25 40° SSE
SL-16 R/B 3.8 23:49:41 10° N 23:54:27 27° NE 23:58:07 15° E
Cosmos 1953 3.4 23:50:56 10° N 23:54:38 32° ENE 23:55:13 31° E
